{"data":{"norad_id":64182,"epoch":"2026-09-20T23:16:29.395488Z","epoch_age_seconds":99778,"freshness":"FRESH","line1":"1 64182U 25113N   26263.96978467  .00014197  00000+0  43057-3 0  9991","line2":"2 64182  53.1575 263.3435 0001268  73.5141 286.6001 15.34395982 74938","mean_motion":15.34395982,"eccentricity":0.0001268,"inclination_deg":53.1575,"raan_deg":263.3435,"arg_perigee_deg":73.5141,"mean_anomaly_deg":286.6001,"bstar":0.00043057,"rev_number":7493,"period_min":93.848003832951,"perigee_km":461.84776251917,"apogee_km":463.58260263267,"semimajor_km":6840.8521825759,"source":"CELESTRAK","updated_at":"2026-09-21T09:00:35.245285Z"}}